C/2020 M5 ( ATLAS )

Japanese version
Home page
Updated on October 10, 2020

---------------------------------------------------------------------

* Profile

Discovery Date June 30, 2020
Magnitude 19.4 mag
Discoverer Asteroid Terrestrial-Impact Last Alert System (ATLAS) search program

* Pictures

* Orbital Elements

Epoch 2021 Aug. 14.0 TT = JDT 2459440.5
T 2021 Aug. 19.88485 TT                                 Rudenko
q   3.0043495            (2000.0)            P               Q
z  +0.0000118      Peri.  126.33973     -0.59316900     -0.79328087
 +/-0.0000027      Node   352.09479     -0.28628945     +0.36725787
e   0.9999647      Incl.   93.22281     +0.75245524     -0.48562033
From 274 observations 2019 Aug. 10-2020 Sept. 19, mean residual 0".6.

* Finding Charts

* Magnitudes Graph

        m1 = 5.5 + 5 log d + 15.0 log r

---------------------------------------------------------------------

The orbital elements are published on M.P.E.C. 2020-S188.
The charts are made with StellaNavigator Ver.10 (AstroArts).
The magnitudes graphs are made with Comet for Windows.

---------------------------------------------------------------------

Copyright(C) Seiichi Yoshida (comet@aerith.net). All rights reserved.